カタログに戻る

STARLINK-34041

運用中通信VLEO
NORAD 63844·PAYLOAD·🇺🇸 United States

打ち上げ May 7, 2025 から Cape Canaveral Space Force Station

Loading…

次のパス (今後24時間)

TLE

最新Source: CelesTrak SupGP

元期: Sep 15, 2026, 03:21 UTC

1 63844C 25093J   26258.14006944 -.00011660  00000+0 -42234-3 0  2586
2 63844  43.0003  88.2813 0001642 272.1148  54.0576 15.27583441    13

AllMySatでSTARLINK-34041をリアルタイム追跡

Download on the App Store